Weather History for Terre Haute, IN

Change the Weather History Date:

Saturday, November 17, 2012

  Actual Average Record
Temperature  
Mean Temperature 42 °F 43 °F  
Max Temperature 59 °F 52 °F 74 °F (1971)
Min Temperature 25 °F 34 °F 5 °F (1959)
Degree Days  
Heating Degree Days 23 22  
Month to date heating degree days 373 321  
Since 1 July heating degree days 812 748  
Moisture  
Dew Point 29 °F    
Average Humidity 64    
Maximum Humidity 92    
Minimum Humidity 36    
Precipitation  
Precipitation 0.00 in 0.12 in 1.49 in (1993)
Month to date precipitation 0.32 2.17  
Year to date precipitation 24.94 40.44  
Sea Level Pressure  
Sea Level Pressure 30.51 in    
Wind  
Wind Speed 3 mph (East)    
Max Wind Speed 9 mph    
Max Gust Speed 10 mph    
Visibility 8 miles    
Events      
T = Trace of Precipitation, MM = Missing Value Source: NWS Daily Summary

Daily Weather History Graph

Daily Weather History Graph

Search for Another Location

Airport:

Trip Planner

Search our weather history database for the weather conditions in past years. The results will help you decide how hot, cold, wet, or windy it might be!

Date:

Astronomy

Nov. 17, 2012 Rise Set
Actual Time 7:35 AM EST 5:32 PM EST
Civil Twilight 7:07 AM EST 6:01 PM EST
Nautical Twilight 6:34 AM EST 6:33 PM EST
Astronomical Twilight 6:02 AM EST 7:05 PM EST
Moon 11:20 AM EST (11/17) 9:41 PM EST (11/17)
Length of Visible Light 10h 54m
Length of Day
9h 56m
Waxing Crescent, 20% of the Moon is Illuminated
Nov 17
Waxing Crescent
Nov 20
First Quarter
Nov 28
Full
Dec 6
Last Quarter
Dec 13
New

Hourly Weather History & Observations

Time (EST) Temp. Windchill Dew Point Humidity Pressure Visibility Wind Dir Wind Speed Gust Speed Precip Events Conditions
12:53 AM 32.0 °F - 26.1 °F 79% 30.50 in 8.0 mi Calm Calm - N/A   Clear
1:53 AM 30.0 °F - 26.1 °F 85% 30.50 in 7.0 mi Calm Calm - N/A   Clear
2:53 AM 28.9 °F - 25.0 °F 85% 30.50 in 7.0 mi Calm Calm - N/A   Clear
3:53 AM 27.0 °F - 24.1 °F 89% 30.50 in 5.0 mi Calm Calm - N/A   Clear
4:53 AM 28.0 °F - 24.1 °F 85% 30.50 in 6.0 mi Calm Calm - N/A   Clear
5:53 AM 26.1 °F 21.9 °F 23.0 °F 88% 30.53 in 5.0 mi NNW 3.5 mph - N/A   Clear
6:53 AM 26.1 °F - 23.0 °F 88% 30.54 in 4.0 mi Calm Calm - N/A   Clear
7:53 AM 26.1 °F - 21.9 °F 84% 30.56 in 3.0 mi Calm Calm - N/A   Clear
8:53 AM 33.1 °F - 28.9 °F 85% 30.56 in 3.0 mi Calm Calm - N/A   Clear
9:53 AM 43.0 °F 41.3 °F 33.1 °F 68% 30.57 in 5.0 mi NE 3.5 mph - N/A   Haze
10:25 AM 46.4 °F 43.5 °F 33.8 °F 62% 30.56 in 2.0 mi ESE 5.8 mph - N/A   Haze
10:28 AM 46.4 °F 44.3 °F 33.8 °F 62% 30.56 in 4.0 mi East 4.6 mph - N/A   Haze
10:53 AM 46.9 °F - 34.0 °F 61% 30.57 in 7.0 mi ESE 4.6 mph - N/A   Clear
11:53 AM 51.1 °F - 35.1 °F 54% 30.56 in 10.0 mi Calm Calm - N/A   Clear
12:53 PM 54.0 °F - 33.1 °F 45% 30.52 in 10.0 mi SSE 4.6 mph - N/A   Clear
1:53 PM 57.0 °F - 32.0 °F 39% 30.50 in 10.0 mi SE 6.9 mph - N/A   Clear
2:53 PM 57.9 °F - 30.0 °F 35% 30.47 in 10.0 mi ENE 5.8 mph - N/A   Clear
3:53 PM 57.9 °F - 30.9 °F 36% 30.46 in 10.0 mi NE 4.6 mph - N/A   Clear
4:53 PM 54.0 °F - 30.9 °F 41% 30.46 in 10.0 mi East 6.9 mph - N/A   Clear
5:53 PM 44.1 °F - 30.9 °F 60% 30.47 in 10.0 mi Calm Calm - N/A   Clear
6:53 PM 39.9 °F 35.1 °F 30.0 °F 68% 30.47 in 10.0 mi ENE 6.9 mph - N/A   Clear
7:53 PM 42.1 °F 37.1 °F 30.9 °F 65% 30.47 in 10.0 mi ENE 8.1 mph - N/A   Clear
8:53 PM 39.9 °F 35.8 °F 30.0 °F 68% 30.46 in 10.0 mi East 5.8 mph - N/A   Clear
9:53 PM 42.1 °F 38.4 °F 30.0 °F 62% 30.45 in 10.0 mi East 5.8 mph - N/A   Clear
10:53 PM 41.0 °F 36.4 °F 30.0 °F 65% 30.45 in 10.0 mi East 6.9 mph - N/A   Clear
11:53 PM 39.0 °F 36.8 °F 28.9 °F 67% 30.45 in 10.0 mi East 3.5 mph - N/A   Clear